Wind_Speed
44 44 44 44 43 42 43 42 42 41 40 39 39 40 40 39 39 38 38 38 38 38 38 39 39 38 38 38 38 37 37 37 37 37 37 36 36 35 33 32 32 31 29 28 27 27 26 25 24 22 20 18 17 16 14 13 13 13 12 11 11 9 9 9 9 8 10 10 9 8 6 6 7 7 6 6 6 7 9 11 12 13 14 15 16
44 44 43 43 44 44 42 42 42 41 40 40 40 40 41 40 39 38 38 38 38 38 39 40 39 39 39 39 39 38 38 37 37 38 38 38 37 36 35 34 34 33 31 30 29 28 27 27 25 23 22 20 18 17 16 14 14 15 15 14 13 11 10 10 10 9 11 12 11 10 8 9 9 8 8 9 9 10 13 14 14 15 15 15 15
44 44 43 43 44 43 42 41 41 41 41 41 41 41 41 40 40 39 39 39 38 39 39 39 39 39 39 40 39 39 39 38 38 38 39 38 38 37 36 36 35 34 33 32 31 29 28 28 27 25 23 22 20 18 17 16 16 16 16 16 15 13 12 12 12 11 13 15 14 13 12 11 11 10 10 11 12 14 15 16 15 16 16 15 15
43 43 43 42 42 41 41 41 41 41 42 42 42 42 41 40 39 40 40 39 38 39 39 39 39 39 39 40 40 40 40 39 38 38 39 39 38 38 37 37 36 36 35 33 32 30 30 30 29 26 24 23 22 20 19 18 18 17 17 17 16 15 14 14 14 14 14 15 16 16 15 14 13 12 12 14 15 15 16 16 17 17 16 15 16
41 42 42 40 40 41 41 40 41 42 43 42 42 42 41 40 40 40 39 38 38 38 38 38 38 39 40 40 40 40 40 40 39 38 39 39 39 38 37 37 37 36 35 34 33 32 31 31 30 27 26 25 24 23 21 20 19 19 19 18 16 15 15 15 15 15 16 17 18 17 17 16 16 15 15 16 17 17 17 18 18 17 17 16 16
41 41 41 40 40 40 40 40 41 42 43 42 41 41 40 40 40 40 39 38 37 37 38 38 39 40 41 40 40 40 40 40 40 39 39 39 39 38 37 37 37 36 35 34 33 33 32 32 31 29 27 26 26 25 24 22 21 20 20 19 17 16 16 16 16 16 18 19 19 18 18 18 18 18 17 16 17 18 18 20 19 17 16 17 18
40 40 40 40 40 40 41 42 41 41 42 42 40 40 40 41 40 40 39 37 37 37 38 38 39 40 40 40 40 40 39 40 40 40 40 39 38 38 37 37 36 35 35 34 33 33 33 33 31 30 29 28 27 26 25 24 23 22 22 20 19 18 17 17 17 17 18 19 19 19 20 20 20 19 18 15 15 16 17 19 20 17 15 17 19
40 40 40 40 41 42 43 42 41 41 41 41 40 40 40 41 40 39 37 37 38 38 38 38 39 39 39 39 39 39 39 40 40 40 40 39 38 37 37 37 36 35 35 34 34 33 33 33 32 31 31 30 29 28 27 26 25 24 23 21 20 19 18 18 18 18 19 19 19 20 20 20 19 18 17 15 14 16 16 15 17 18 17 17 18
40 39 39 40 42 42 41 40 40 41 40 40 41 40 40 40 39 38 37 37 38 38 38 38 38 38 38 38 38 39 39 40 41 41 40 39 38 38 38 37 36 35 34 34 34 34 34 33 33 32 32 31 31 29 28 26 25 24 24 22 21 20 19 20 20 20 20 20 20 20 20 20 20 18 17 17 15 16 15 13 15 17 18 18 19
39 39 40 42 43 41 40 40 40 40 40 41 40 39 39 38 37 37 37 37 37 37 37 37 38 38 37 37 37 38 40 41 42 42 41 40 39 39 39 38 37 35 34 33 33 34 34 34 34 33 32 31 30 29 28 27 25 24 24 22 22 21 21 21 21 22 21 20 21 21 19 20 22 20 18 18 16 15 15 15 16 17 16 16 18
39 40 42 43 41 40 40 40 40 40 41 40 39 39 38 37 37 37 37 37 37 37 37 37 38 38 38 37 38 39 40 41 41 41 41 41 41 40 40 39 38 36 34 33 33 33 33 33 33 32 31 30 30 29 28 27 26 25 24 23 22 22 22 22 22 22 22 21 22 21 19 21 24 21 17 16 16 16 16 16 16 17 15 14 14
40 41 42 41 39 40 40 40 40 41 41 40 39 38 37 37 36 36 37 38 38 37 37 38 38 38 38 38 38 39 41 41 40 41 41 41 42 42 41 40 38 35 34 34 34 33 33 32 32 31 30 30 29 28 27 27 27 26 25 24 23 23 23 23 22 21 21 21 21 22 21 22 22 19 15 15 15 15 16 15 15 16 16 15 14
40 40 40 38 39 40 40 39 40 40 41 40 38 36 36 37 38 38 39 39 38 37 38 39 38 38 37 38 39 40 40 40 40 41 40 41 42 43 42 40 36 34 34 34 35 34 32 30 30 29 29 28 28 27 27 27 27 26 25 24 24 24 24 22 20 20 21 22 22 24 23 20 18 18 16 14 15 15 15 16 16 15 15 16 17
38 39 38 38 39 39 39 39 40 40 39 38 36 36 38 39 40 40 38 37 37 39 39 39 38 38 38 38 39 40 40 40 40 40 40 41 42 44 44 40 35 34 34 34 34 33 31 29 29 28 28 27 26 27 27 27 27 26 25 24 24 24 22 20 20 21 23 22 21 21 20 15 15 18 18 16 16 16 16 17 16 16 16 16 18
38 39 38 38 38 39 39 40 40 39 37 37 37 38 40 41 41 40 38 38 40 40 39 39 39 38 39 39 38 38 39 40 40 40 41 41 42 43 44 40 35 33 33 33 33 32 30 29 29 29 27 26 26 26 27 27 26 25 25 24 23 22 19 19 21 21 18 17 17 19 19 17 16 19 20 19 19 18 15 15 14 14 16 16 17
36 36 35 37 38 39 40 40 39 37 36 37 39 40 41 41 41 40 39 39 39 38 38 39 39 38 38 38 38 38 38 39 39 40 40 40 42 43 42 37 32 30 31 32 31 31 30 29 29 29 28 26 25 25 26 26 25 25 25 23 21 19 18 17 18 16 13 12 15 18 19 17 17 19 19 18 18 15 11 11 11 12 14 14 15
34 35 35 37 38 38 39 38 37 36 37 39 41 42 42 41 40 39 39 38 38 38 38 38 38 38 38 38 38 38 38 38 39 40 39 39 42 42 38 33 30 29 30 31 30 30 29 28 29 29 28 26 23 23 25 24 24 25 23 21 20 18 14 12 13 12 10 10 12 14 13 12 11 11 12 12 11 9 8 10 12 12 12 11 11
34 35 37 39 39 39 38 37 37 37 38 40 41 41 41 40 40 39 39 39 39 38 37 36 36 38 38 39 39 39 38 37 38 37 38 39 41 39 34 31 30 29 29 30 30 30 29 28 29 28 26 23 21 22 24 24 24 25 22 21 20 12 5 7 10 11 12 11 10 9 8 7 7 8 9 9 9 10 11 13 13 12 11 10 8
35 37 39 39 38 37 37 37 38 39 39 41 41 40 40 39 38 38 39 39 38 37 36 35 35 36 37 38 39 38 36 36 36 36 37 38 39 37 33 30 28 27 28 29 28 28 28 27 27 26 23 21 20 21 22 22 24 24 21 19 16 8 5 8 11 11 12 11 9 8 8 9 10 10 11 12 12 12 12 12 10 8 8 7 7
37 37 36 33 32 34 35 38 40 40 40 41 40 39 39 36 35 37 38 37 36 35 35 35 34 35 35 36 37 37 36 35 34 35 36 36 37 37 33 30 29 28 29 29 28 27 27 26 25 23 21 20 20 20 20 21 21 20 17 16 15 12 12 12 9 9 10 8 7 8 9 10 11 12 12 11 10 10 9 7 5 4 4 6 8
38 36 34 31 32 34 36 37 40 40 40 39 37 37 37 36 36 37 36 35 34 33 34 34 33 33 34 35 34 34 35 36 34 34 33 34 35 36 35 32 32 30 29 29 27 26 25 25 23 20 19 20 20 19 18 19 18 16 15 15 16 17 15 11 8 8 8 7 7 8 8 9 10 9 7 7 6 6 4 3 3 4 6 8 10
32 32 32 32 34 36 37 38 39 39 37 36 35 35 37 37 37 37 35 34 33 33 32 32 31 31 31 32 33 33 34 35 34 32 32 32 34 35 35 33 32 30 28 27 26 25 24 24 22 20 19 19 19 19 19 18 16 15 15 15 16 17 15 11 10 8 7 7 8 8 8 8 7 4 3 3 2 2 2 3 4 7 9 11 12
26 26 28 31 33 35 37 39 39 38 37 37 36 35 35 35 35 35 34 33 31 30 30 30 29 28 27 27 29 30 31 32 32 30 30 30 30 32 33 32 30 29 29 27 26 25 24 23 20 19 19 20 20 20 18 16 14 15 16 16 17 15 13 11 10 9 9 9 9 9 8 6 4 1 1 1 1 2 3 5 8 10 11 13 14
25 26 30 32 33 35 37 39 40 40 40 39 37 35 35 35 34 34 34 32 30 28 28 29 28 26 26 25 26 27 29 29 29 27 26 27 27 29 31 30 28 27 27 26 25 24 23 20 18 18 19 20 19 17 14 12 13 14 15 15 15 13 11 10 10 10 10 9 10 9 7 4 3 1 1 2 3 4 5 8 10 11 13 14 13
27 30 33 34 36 38 38 39 40 40 40 40 39 37 36 35 33 33 33 32 30 27 26 27 28 26 26 26 26 27 27 27 27 24 22 23 25 26 27 28 26 25 24 23 22 21 19 18 17 18 18 17 15 13 11 11 11 11 10 11 11 11 11 11 10 10 10 10 10 7 4 3 3 2 3 5 6 6 8 10 12 13 14 13 12
27 30 32 34 36 37 35 34 36 37 38 38 38 38 37 36 33 31 31 30 29 27 26 26 26 25 26 26 27 28 26 25 25 24 21 21 22 23 24 25 25 23 21 20 19 18 17 16 17 16 16 14 13 11 10 9 8 7 8 9 10 10 10 10 10 10 10 9 8 6 4 4 4 4 5 7 9 9 9 11 13 14 13 12 13
28 30 32 33 33 33 32 31 32 33 34 35 35 34 36 36 34 33 32 31 29 28 27 27 25 24 25 25 26 27 26 25 24 24 23 22 22 22 25 26 25 22 20 18 17 17 16 15 15 14 14 13 12 10 9 8 9 10 10 9 9 9 10 10 10 10 10 8 7 7 7 7 7 7 8 9 10 9 8 10 12 13 11 12 14
26 28 31 32 31 32 33 33 32 32 33 33 32 32 34 35 35 36 39 38 36 32 29 29 29 28 27 27 26 25 24 26 26 26 25 25 25 26 28 28 25 22 20 19 18 17 16 15 14 15 15 14 13 11 11 11 12 13 13 12 12 12 11 11 11 11 10 8 8 9 10 10 10 9 9 10 9 8 8 10 11 11 11 12 13
16 18 21 24 26 30 32 34 35 34 34 34 35 35 37 41 41 39 38 38 40 41 39 35 34 34 33 32 30 26 25 27 26 24 23 25 28 30 31 29 26 23 21 20 19 17 16 17 17 18 17 16 15 14 14 14 14 14 14 14 14 13 12 12 12 11 10 10 10 11 12 12 12 11 10 9 8 8 8 9 9 10 11 11 11
7 8 11 16 21 24 26 28 30 31 32 34 36 35 35 37 38 36 33 31 32 38 42 41 39 37 36 33 31 28 26 26 23 21 22 24 26 27 27 26 25 23 21 20 19 18 19 20 20 20 19 18 17 16 15 15 15 15 15 14 14 13 12 12 12 12 12 11 11 11 12 12 12 10 7 7 8 8 8 8 9 10 10 9 10
4 2 4 10 17 21 23 24 27 30 33 36 37 33 27 23 24 29 35 36 31 31 35 38 38 36 33 30 27 24 23 22 22 21 22 22 21 20 20 21 23 24 23 21 20 20 21 21 21 20 19 18 17 16 16 15 15 14 13 12 11 11 11 11 10 10 11 10 10 10 10 10 8 6 6 7 8 8 8 8 9 9 7 8 10
7 6 3 3 10 18 23 25 26 28 29 31 33 33 30 28 26 25 28 32 31 29 28 29 31 30 27 25 24 22 21 22 22 22 22 20 19 19 19 21 23 24 25 23 22 22 22 22 21 20 19 18 17 16 14 14 12 11 10 9 9 9 9 9 8 7 8 8 8 7 7 7 6 6 6 7 8 8 8 8 6 6 7 9 11
8 7 5 3 3 6 13 20 25 28 27 24 25 29 30 28 29 33 34 31 28 26 23 23 24 24 21 20 21 21 21 22 22 22 21 19 18 18 20 22 23 24 26 26 24 23 23 22 21 20 20 18 16 14 12 11 9 8 7 7 7 7 7 6 6 6 7 7 7 7 7 7 7 7 8 8 8 8 8 6 4 6 8 11 13
10 8 5 3 5 7 7 3 7 15 19 19 17 19 23 27 33 40 40 32 28 26 25 24 23 22 20 19 19 20 20 20 20 20 20 18 18 19 21 21 22 24 26 26 25 24 24 22 21 21 19 16 14 12 11 10 8 7 7 7 6 5 5 6 6 7 8 8 8 7 7 7 7 8 8 8 8 7 5 3 4 7 9 11 13
9 8 5 3 3 3 8 9 10 12 17 21 21 20 22 25 28 30 29 27 28 28 26 24 23 22 21 21 20 18 18 17 17 17 18 19 21 22 22 22 24 26 26 25 24 25 24 23 22 20 17 15 13 12 11 10 10 10 10 8 7 7 6 7 7 8 8 8 7 6 6 6 7 7 7 6 5 4 2 3 5 8 9 10 12
12 12 10 8 7 5 5 8 8 9 15 23 25 25 27 28 27 27 25 25 30 31 27 23 23 22 21 20 18 16 15 16 17 18 20 22 25 26 26 27 28 28 25 24 24 25 24 23 21 18 16 15 14 13 13 13 13 12 10 9 9 8 8 8 9 8 7 6 6 5 5 5 5 5 5 5 4 2 3 5 6 7 9 10 12
15 16 15 13 11 11 11 11 8 9 15 22 24 24 25 27 27 26 23 23 28 30 27 25 24 22 20 18 17 16 16 17 19 21 22 24 25 27 29 30 30 28 26 25 24 24 23 21 19 18 18 17 16 15 15 14 13 12 11 11 10 10 11 11 10 9 8 7 7 7 7 6 6 6 5 5 3 2 3 5 6 8 9 10 12
14 17 18 17 15 15 14 12 11 13 18 23 24 24 23 23 22 22 20 21 26 28 27 25 25 25 23 21 19 19 20 21 23 23 23 25 26 26 27 28 29 29 27 25 24 23 22 21 20 20 20 19 18 17 16 15 14 13 13 12 12 12 12 12 11 11 10 9 9 9 8 8 7 7 6 5 3 3 4 6 7 8 9 11 12
13 15 17 19 20 19 17 14 14 16 19 21 23 23 22 20 18 19 20 21 23 25 24 23 23 25 26 26 25 25 25 26 26 27 27 28 27 25 25 26 27 28 27 26 24 23 22 22 22 21 21 19 18 17 16 14 14 14 13 13 14 14 14 14 13 12 12 11 10 9 9 8 8 8 7 5 4 4 5 6 7 8 10 11 13
14 14 15 15 17 18 17 16 16 18 19 19 19 21 20 19 18 19 21 22 21 22 22 22 22 25 28 29 30 30 30 29 29 29 30 29 26 23 23 24 25 26 26 26 25 23 23 23 23 22 21 19 18 16 14 13 14 14 14 14 14 14 15 15 14 13 13 11 10 9 9 10 10 9 7 5 4 5 6 6 8 8 9 11 13
13 12 12 12 13 14 14 15 15 16 17 18 18 18 18 18 18 19 20 20 20 20 20 19 21 26 29 30 31 31 31 32 32 32 31 30 27 24 23 22 23 24 25 26 26 24 23 23 23 21 20 18 16 15 14 14 14 15 15 15 15 15 15 15 14 13 12 10 9 9 10 11 11 9 7 6 5 5 6 8 8 8 9 10 12
10 10 10 11 12 14 15 14 14 15 16 17 18 18 18 19 19 19 19 19 19 19 18 16 18 23 27 29 30 28 26 28 31 31 30 29 27 24 22 21 21 22 23 25 26 25 23 23 22 22 20 18 17 15 15 15 16 16 16 16 16 15 16 15 14 12 11 10 10 11 12 11 10 8 6 6 6 7 8 9 8 7 8 10 11
7 8 8 9 11 14 16 16 16 17 16 16 17 18 19 19 18 19 19 19 18 18 17 17 18 21 25 28 28 25 23 25 28 28 28 28 26 23 21 20 19 19 20 22 23 23 23 23 23 21 19 17 16 14 14 14 15 16 16 16 16 16 16 14 13 12 11 11 12 12 12 10 8 6 6 7 8 9 9 8 7 6 8 9 10
5 6 6 6 7 11 14 16 17 18 18 17 16 16 17 17 17 17 18 18 18 18 18 19 20 22 25 27 26 22 22 24 27 27 27 27 25 23 21 20 19 19 19 20 20 21 22 23 23 20 17 15 14 12 11 12 12 13 14 15 15 16 15 13 12 12 12 13 13 12 11 9 7 7 8 9 10 9 8 6 6 6 7 8 10
5 4 4 5 7 8 8 9 11 13 15 17 17 17 17 17 17 16 16 17 18 20 20 21 22 25 28 28 25 22 21 23 25 25 26 26 25 24 22 20 19 19 19 19 21 23 24 24 22 20 17 15 13 11 9 8 8 10 11 12 13 13 11 11 11 12 13 13 12 10 9 8 8 9 10 9 9 8 6 5 4 5 6 7 10
5 4 4 6 7 6 6 8 10 11 12 13 13 14 16 17 17 18 19 20 21 22 23 23 24 26 28 28 25 22 20 21 22 23 23 24 24 24 23 22 20 19 19 21 24 26 26 24 21 19 17 14 12 9 7 6 7 9 10 10 10 9 9 9 12 13 13 11 9 8 8 8 9 9 9 8 7 6 5 4 4 4 6 7 10
6 6 5 6 6 7 8 9 10 10 11 11 12 13 14 15 15 15 16 18 19 21 23 24 24 25 27 27 25 22 20 19 20 21 22 22 22 22 24 24 21 18 19 23 27 27 26 23 20 17 15 13 11 10 9 7 8 10 11 10 9 8 8 10 12 12 10 8 7 7 7 8 8 8 7 6 6 6 5 5 4 4 5 7 9
5 6 6 6 7 9 9 10 10 10 11 13 14 15 15 15 15 16 16 15 16 18 20 21 22 23 25 25 25 22 20 20 19 19 19 19 19 20 23 24 22 20 22 26 28 27 25 22 19 16 15 13 12 12 11 9 10 11 11 8 6 6 7 9 10 9 8 7 6 6 6 7 7 6 6 6 6 6 6 5 3 4 6 7 8
6 7 7 6 6 6 6 6 8 9 11 12 14 14 15 17 18 20 20 19 18 18 19 20 21 22 23 25 25 23 21 20 19 17 17 17 18 19 22 23 23 23 26 28 29 27 24 22 20 17 16 15 14 14 12 11 12 12 10 7 6 7 8 8 8 8 7 7 6 7 7 7 6 5 5 5 5 5 5 4 3 4 5 5 6
9 8 6 4 2 1 1 3 5 8 10 11 12 13 15 17 17 18 19 19 19 19 19 20 21 22 23 24 25 23 21 20 19 17 16 15 16 18 21 23 24 26 29 30 29 27 25 23 21 18 17 16 16 15 14 13 13 12 11 9 10 9 8 8 7 7 6 6 6 6 5 4 4 4 4 4 5 6 5 3 2 4 4 4 6
11 10 8 7 6 4 1 3 5 7 8 8 7 8 12 15 15 15 15 17 18 19 20 21 21 22 22 22 23 23 22 21 20 18 16 14 15 18 21 23 24 27 31 31 30 28 25 22 20 18 18 18 18 17 16 14 14 13 13 12 11 10 8 7 7 6 6 5 4 3 3 3 3 3 3 4 6 6 4 2 2 2 3 5 7
Wind_Direction
202 203 204 206 207 208 208 209 209 210 211 212 212 214 216 217 218 219 220 221 220 219 219 220 221 221 220 221 222 223 225 226 227 227 228 229 229 229 231 231 231 233 233 233 232 231 231 233 236 235 233 234 233 233 236 236 235 232 231 232 230 233 237 227 226 247 258 254 256 266 277 284 285 285 297 309 307 301 304 305 306 306 304 300 297
202 204 204 205 207 208 208 208 208 209 210 212 213 214 216 217 218 219 220 221 220 219 219 220 221 221 220 221 222 223 225 226 226 227 228 228 228 229 231 231 232 233 232 233 233 232 232 233 234 233 232 235 233 233 237 236 232 232 228 226 227 230 235 236 238 249 265 270 273 277 283 288 289 290 303 312 309 306 307 309 310 309 306 302 298
202 203 204 206 207 208 208 208 208 208 209 211 213 214 216 217 217 218 220 221 220 220 220 221 221 221 220 220 221 222 225 226 226 227 227 228 227 228 230 231 232 233 233 233 232 232 231 231 231 231 231 233 233 234 237 237 235 235 231 226 227 231 235 239 242 247 261 273 281 285 289 293 295 297 305 306 304 303 304 305 305 303 302 299 295
202 203 204 206 207 207 208 208 207 208 209 211 213 214 215 216 217 218 219 220 220 220 221 221 220 220 220 220 220 222 224 225 226 227 228 228 228 229 231 231 233 234 234 234 232 231 231 231 231 230 229 230 233 234 234 235 237 236 232 228 230 235 239 240 243 249 256 265 275 282 286 291 294 297 299 299 298 298 298 299 298 299 299 296 293
201 202 204 205 206 207 208 208 208 209 210 211 213 213 214 215 215 217 218 218 219 219 219 220 219 220 220 220 220 221 223 224 226 227 228 229 229 230 231 233 234 235 236 235 233 231 231 233 234 231 228 229 231 232 233 234 236 234 231 233 237 242 246 245 246 251 252 256 266 275 280 284 287 290 291 292 293 294 294 297 299 302 303 300 297
200 202 203 203 205 207 207 208 209 209 211 212 213 213 213 214 215 216 217 216 217 218 219 219 219 220 221 220 220 222 223 225 226 228 229 229 229 230 232 234 235 237 237 236 234 233 233 234 235 233 231 232 232 232 233 234 233 232 232 237 244 248 249 249 251 253 254 257 263 270 276 279 281 282 282 282 284 288 294 299 303 305 306 305 305
199 200 201 203 205 206 207 208 209 210 212 213 213 213 213 214 215 215 216 215 215 217 218 219 220 221 221 221 221 222 223 225 227 228 229 228 228 229 231 233 235 237 237 237 236 236 235 236 236 235 235 235 235 236 235 234 234 234 236 241 246 250 249 251 253 254 255 258 261 266 272 275 276 276 276 274 274 279 288 294 298 304 307 306 306
198 200 200 202 205 206 207 208 209 210 212 213 214 214 214 214 215 215 214 214 215 217 218 219 221 222 222 222 222 223 223 225 226 227 227 227 227 229 230 232 234 235 237 237 237 237 238 238 238 238 238 239 240 240 239 237 236 236 237 241 246 250 251 252 253 253 254 255 258 264 269 271 271 269 269 268 269 279 288 287 288 297 304 302 301
197 199 200 203 206 207 206 207 208 210 212 213 214 214 214 215 215 214 214 215 216 218 219 220 221 221 222 222 222 223 223 225 226 226 225 225 226 228 230 232 233 234 235 236 237 238 239 240 241 240 241 242 243 243 243 242 240 237 237 241 246 250 251 252 253 252 252 252 257 262 265 265 265 262 262 266 272 285 293 284 280 290 297 296 295
197 198 201 205 206 206 205 205 207 208 210 212 213 213 214 214 214 214 214 215 216 217 218 220 221 221 222 222 222 222 224 225 226 226 226 225 226 228 230 232 233 234 233 233 235 237 238 241 242 241 241 243 244 244 244 244 243 240 240 242 248 251 250 250 251 250 249 249 254 258 258 259 262 261 262 271 281 289 288 281 281 287 288 285 289
197 200 203 205 205 203 203 204 206 207 210 211 212 212 213 213 214 214 213 214 215 216 217 218 220 221 222 222 222 223 224 226 226 226 226 227 228 228 230 232 233 232 232 232 233 235 236 239 242 241 240 240 242 243 244 244 243 241 241 243 249 253 252 250 250 248 246 246 252 255 252 256 264 265 265 277 289 291 287 284 282 282 277 272 279
198 202 205 205 203 202 203 203 204 206 208 210 210 210 211 212 213 214 213 213 214 214 215 217 219 220 221 222 223 224 226 227 227 226 227 228 230 231 231 232 232 231 230 231 233 235 234 236 240 240 237 237 239 241 243 244 243 241 241 244 250 254 254 253 252 251 249 248 251 253 252 255 263 268 273 285 292 292 288 285 281 277 271 266 268
200 204 205 203 202 203 202 202 204 206 207 208 208 208 208 210 212 213 214 213 212 213 215 217 218 219 219 221 223 225 227 227 227 226 227 230 232 233 232 232 231 230 230 232 234 234 232 233 236 238 236 235 237 240 243 245 243 240 240 244 249 251 253 254 254 257 261 258 254 254 255 256 263 276 288 296 294 289 284 283 284 279 270 267 274
202 204 205 203 203 203 201 202 204 206 206 205 205 206 208 210 212 213 213 212 212 213 215 216 217 218 219 220 223 225 226 227 227 227 227 231 235 235 232 231 230 229 231 234 234 233 231 231 234 237 237 235 235 239 243 244 242 239 239 242 246 248 249 251 255 260 262 258 254 258 263 267 278 292 302 301 291 286 285 286 288 283 275 276 284
203 205 204 204 203 202 201 203 204 205 204 202 203 206 208 210 211 211 211 211 212 214 214 215 217 218 219 221 222 225 227 227 227 227 228 233 237 236 232 229 228 228 232 235 236 234 232 232 235 238 238 237 238 240 242 242 241 239 239 241 244 246 249 257 267 267 257 251 259 264 266 272 285 294 297 292 285 286 288 287 285 283 282 286 291
204 205 204 204 204 202 201 202 203 203 201 201 203 206 208 210 210 209 209 211 213 214 214 215 216 217 219 220 222 224 227 227 227 227 229 234 237 234 229 227 227 228 231 235 237 236 233 232 236 239 239 239 240 242 242 241 239 238 239 240 243 250 257 267 275 268 251 257 270 265 262 271 282 284 283 280 280 284 287 284 285 286 287 291 295
205 205 205 206 205 204 203 202 202 201 200 201 204 206 208 209 209 208 208 210 212 213 214 215 215 217 218 219 220 223 226 227 227 227 229 234 235 230 226 225 226 228 233 237 237 236 234 235 238 239 238 238 242 244 242 238 234 237 239 242 248 257 264 270 271 260 251 261 264 256 261 276 275 266 266 267 274 284 286 286 291 292 291 293 295
206 206 207 207 205 205 203 202 201 201 202 204 206 207 208 209 208 207 207 209 211 213 213 214 215 216 217 218 220 222 224 226 227 226 229 234 232 227 224 224 223 226 232 236 236 234 234 236 238 238 237 239 244 245 240 233 232 236 241 248 256 260 253 254 256 248 245 253 260 265 271 263 243 242 254 268 284 291 286 284 287 285 283 282 282
209 208 209 208 206 204 203 202 203 204 205 207 207 207 208 209 208 207 208 210 212 212 212 213 214 215 216 218 220 221 222 225 225 226 230 233 230 224 222 221 219 221 228 233 234 233 233 235 235 236 239 243 245 243 238 231 232 238 244 250 256 246 220 243 247 237 239 251 268 277 262 241 243 259 274 285 290 284 276 275 275 271 271 277 286
211 212 212 209 206 205 204 204 205 207 208 209 208 208 208 208 207 208 209 210 211 211 211 212 213 214 215 217 219 219 220 222 225 226 229 231 227 221 215 214 215 218 224 228 229 228 231 232 231 233 238 241 241 242 237 228 230 237 244 251 255 243 235 244 246 237 242 250 254 254 248 249 265 280 287 288 278 269 268 270 264 267 283 298 304
211 211 211 207 206 207 207 207 208 210 211 210 208 208 207 206 206 207 208 209 208 209 210 210 211 213 214 214 216 216 218 221 224 226 227 227 225 219 213 214 218 219 219 222 223 224 225 227 228 231 233 235 238 238 231 224 229 241 253 263 263 251 242 244 246 243 244 242 240 247 255 265 277 285 285 275 262 261 268 258 263 302 318 318 316
212 211 209 206 206 206 207 208 209 211 213 210 208 207 207 206 206 206 206 206 206 206 206 205 206 208 210 211 212 213 216 220 222 223 223 223 222 220 217 219 221 218 215 217 220 224 227 229 230 229 229 231 233 228 222 225 237 255 268 271 263 256 255 259 260 258 255 244 243 256 267 273 281 282 259 249 251 243 233 248 291 316 321 321 321
214 211 209 209 209 209 208 208 208 209 210 209 207 206 205 204 205 204 203 203 203 202 201 198 197 197 199 202 207 209 211 216 219 221 221 220 220 220 219 220 220 218 216 218 223 228 231 232 231 229 228 228 224 219 222 235 250 263 268 264 256 255 259 259 256 257 255 249 255 270 279 287 306 311 206 227 253 239 259 290 308 315 317 317 317
211 209 209 210 211 211 210 209 208 207 207 205 204 204 202 201 201 201 199 198 198 197 193 189 187 186 185 187 193 200 204 209 212 215 215 215 216 216 216 217 218 219 219 222 228 232 232 230 227 224 221 219 218 222 232 246 257 262 260 254 251 249 243 239 242 246 249 258 272 279 283 305 347 355 270 267 266 269 290 302 307 310 312 311 308
211 209 210 211 211 211 211 209 207 207 205 202 200 199 197 195 196 195 194 193 192 190 186 183 182 178 176 177 180 187 194 199 201 203 205 209 212 212 213 214 216 218 220 223 228 230 229 225 218 213 213 215 221 230 236 242 253 255 240 229 229 228 225 228 237 245 256 268 274 273 279 311 330 316 291 281 277 281 293 299 301 304 306 303 297
213 212 212 213 213 211 209 207 206 205 203 200 200 198 194 191 189 188 188 188 187 184 180 179 178 173 171 172 173 177 183 188 191 191 191 199 204 205 206 210 212 214 216 219 221 221 219 216 211 210 216 221 222 223 222 225 231 222 206 206 212 218 223 232 242 253 263 269 269 266 271 281 287 292 289 283 283 285 289 293 296 300 303 300 298
214 214 213 214 213 210 206 204 203 201 198 198 197 195 192 189 184 182 183 183 182 179 177 176 173 169 166 167 168 171 174 177 181 181 180 183 189 193 197 202 203 204 205 208 210 210 208 207 206 208 210 209 207 207 204 201 198 196 201 211 220 226 234 242 251 257 261 263 261 257 259 265 273 280 283 282 284 285 283 286 292 297 302 305 304
218 219 217 214 209 205 202 199 196 193 192 192 191 189 187 185 184 187 188 184 179 175 175 174 173 169 166 163 161 162 167 174 177 177 177 180 184 189 194 196 195 195 198 199 199 201 201 197 193 194 195 194 192 190 189 189 193 199 207 214 219 226 235 243 249 252 254 259 259 256 259 264 269 277 283 281 280 279 277 282 289 295 302 306 307
234 229 222 214 207 203 200 196 193 189 185 182 182 184 186 186 188 191 191 189 185 181 177 174 174 172 169 166 163 161 166 174 178 180 184 189 190 192 194 193 192 194 198 197 194 191 190 188 186 186 186 187 186 186 188 192 196 201 207 212 217 225 235 243 248 251 254 258 261 260 260 262 269 280 283 276 270 271 274 281 289 295 302 307 310
267 239 219 208 203 199 195 193 189 184 179 173 170 173 179 186 189 186 182 186 192 188 180 176 175 173 170 169 173 178 179 178 178 184 190 192 191 191 192 193 194 195 193 192 190 185 182 182 184 185 186 186 188 192 196 197 198 202 209 216 224 234 243 248 251 253 255 256 259 260 260 264 272 277 270 257 259 265 271 281 289 295 303 312 316
17 319 233 207 197 189 182 180 179 176 174 171 167 159 150 148 157 164 169 177 186 187 181 176 174 174 173 171 173 181 185 181 179 181 184 183 182 184 187 190 194 195 191 189 186 182 181 182 185 187 189 190 193 197 200 201 205 210 217 227 237 244 251 255 256 256 255 255 255 256 257 258 257 247 238 243 254 262 271 280 287 295 310 325 326
71 44 9 214 195 185 177 172 169 168 170 171 168 156 133 115 111 123 145 163 172 175 176 172 167 169 174 173 169 170 175 178 178 177 177 176 177 183 190 194 196 197 196 193 188 184 186 188 189 190 192 195 197 201 203 206 211 217 226 235 242 248 255 259 257 250 245 241 238 236 231 226 223 224 233 242 249 263 276 281 289 306 324 331 330
82 60 35 345 278 214 187 174 167 164 165 167 166 159 148 136 124 117 121 133 145 151 157 160 159 159 162 166 169 171 173 176 176 174 176 179 184 192 200 202 201 198 195 193 190 189 191 194 194 195 197 199 200 203 206 212 219 224 226 228 231 240 246 242 230 218 210 206 205 207 208 213 222 229 235 243 255 270 278 284 307 329 332 332 331
105 97 82 29 5 0 356 23 132 142 141 140 141 143 143 139 130 123 121 124 128 132 140 149 152 150 150 157 167 169 169 172 174 175 178 183 190 198 200 198 196 195 193 193 193 193 193 194 197 199 199 200 201 204 208 211 210 204 195 189 190 198 198 192 187 184 183 186 192 201 210 221 231 237 244 254 260 265 272 296 328 333 334 334 333
127 128 130 136 124 39 16 34 61 84 102 110 110 109 111 111 111 113 116 119 123 128 134 141 146 150 155 161 164 165 166 169 171 174 180 184 185 188 186 182 180 183 188 192 195 195 194 194 196 198 197 195 194 196 197 192 184 178 173 169 169 172 174 174 174 177 183 191 198 209 223 233 240 246 251 251 245 245 279 326 336 335 335 336 335
129 125 118 116 124 123 105 102 103 100 106 111 112 111 109 107 105 105 111 121 128 130 132 135 142 150 157 159 160 163 166 165 164 170 180 183 180 178 176 174 175 178 183 188 193 194 194 194 194 193 189 185 182 182 181 177 174 173 174 175 175 177 180 182 182 187 196 203 208 219 227 229 234 239 234 228 226 248 313 331 333 331 333 336 336
123 116 111 107 102 100 106 113 111 101 100 103 104 104 104 106 111 116 120 127 131 131 131 133 135 137 141 148 154 159 161 162 164 171 177 178 177 178 178 176 175 176 179 184 188 190 191 192 190 184 178 175 173 174 175 175 173 173 174 176 178 183 187 190 193 200 208 211 214 219 219 219 227 230 219 213 221 266 310 323 324 323 328 334 335
120 117 120 122 113 106 109 114 108 100 98 98 98 97 94 97 109 119 124 128 130 130 131 134 136 136 138 144 153 159 162 164 166 169 172 174 175 179 182 179 176 176 178 182 186 189 188 186 182 176 172 171 171 172 173 173 172 172 173 175 180 186 190 194 200 205 208 208 210 217 225 227 221 214 207 211 235 275 299 311 317 321 326 331 333
119 121 126 127 124 122 125 121 109 101 98 98 103 108 109 112 119 124 125 127 129 131 133 137 141 144 147 152 158 162 163 162 164 167 172 175 179 184 185 182 178 178 180 182 185 187 186 180 175 172 171 171 171 172 173 174 174 177 178 179 183 188 192 196 200 201 202 206 212 220 228 223 207 202 207 219 244 277 296 307 315 322 326 328 332
115 116 120 122 121 124 126 119 109 107 107 109 113 119 124 130 134 135 133 132 135 140 144 147 149 153 157 161 165 166 164 163 166 171 175 177 182 186 187 183 180 181 182 182 183 184 181 176 173 172 172 172 172 173 177 181 182 184 185 187 190 193 194 196 200 201 203 211 218 223 222 212 203 203 212 221 244 276 295 305 312 316 320 325 330
102 105 115 122 124 124 121 117 116 119 123 127 129 130 133 138 140 140 140 141 145 148 151 153 156 162 167 170 172 172 170 169 172 175 177 179 182 185 186 185 182 181 182 181 181 180 177 174 174 174 172 172 173 176 181 187 188 188 190 192 195 195 195 196 201 204 207 213 218 217 212 206 203 207 215 228 254 280 295 303 306 308 313 320 328
112 116 120 125 132 135 133 130 133 136 138 140 142 144 147 148 147 145 146 148 151 152 152 155 161 168 172 173 173 173 173 174 175 176 178 180 183 184 185 185 185 185 184 183 181 182 180 176 175 175 172 171 175 179 184 191 194 194 194 195 197 198 199 200 202 205 209 212 213 209 204 202 204 212 225 248 272 288 296 299 299 302 310 319 328
131 124 115 116 130 140 143 147 151 152 151 152 153 154 155 156 157 156 156 156 157 158 157 161 168 173 174 173 173 174 176 178 178 178 179 181 181 181 181 183 185 188 189 187 186 186 185 179 175 175 175 176 179 185 192 197 199 199 199 201 202 203 203 203 204 207 210 210 207 204 202 203 212 228 251 272 285 292 296 296 291 296 311 322 330
115 96 78 81 113 136 149 159 163 161 159 161 163 165 166 167 168 167 164 162 163 167 169 171 173 174 173 172 173 176 179 180 180 181 181 181 181 181 180 182 185 187 189 190 190 188 183 178 175 174 176 178 182 188 194 199 203 206 207 206 205 205 207 211 215 218 217 212 206 204 206 214 230 252 270 281 286 287 288 284 281 296 315 326 332
111 106 81 76 92 113 136 156 166 166 165 166 169 173 176 177 176 175 174 172 172 174 178 179 178 177 175 173 174 177 179 180 181 182 182 183 184 183 180 181 184 186 187 187 186 182 179 177 176 175 175 177 179 183 189 197 207 213 214 214 213 214 220 228 230 224 216 210 207 209 218 233 251 265 273 277 279 279 276 269 274 303 323 330 334
105 109 95 90 98 117 145 162 169 170 167 164 165 170 177 180 180 180 181 181 178 176 176 177 177 177 175 174 174 176 178 180 182 183 185 187 189 187 184 181 182 185 185 183 181 179 180 181 180 179 178 177 179 184 192 201 209 212 214 218 223 227 230 231 226 218 211 209 215 227 238 249 260 265 267 270 271 268 259 249 264 306 327 331 334
118 119 118 117 126 147 166 171 165 158 157 162 168 171 174 176 177 177 178 178 174 170 169 170 172 173 174 175 176 177 178 180 183 185 187 191 192 190 186 185 184 184 183 181 180 182 184 186 186 184 181 179 181 186 191 199 207 210 211 215 224 228 222 216 213 211 209 215 230 241 248 257 261 258 258 263 262 254 245 238 254 299 322 328 331
110 118 130 136 130 132 141 150 151 148 153 164 173 175 170 165 166 169 171 170 168 166 164 165 167 171 173 176 179 180 180 181 181 182 184 186 187 186 186 186 186 184 181 181 182 186 189 189 188 186 181 181 184 187 189 197 205 207 208 212 221 222 210 201 201 204 211 223 242 257 267 273 267 254 254 260 253 243 235 229 247 298 317 323 330
95 112 128 134 125 118 127 146 162 167 168 173 179 178 170 165 167 172 174 176 176 174 170 166 167 170 174 177 180 182 182 179 177 176 177 178 180 182 184 185 185 185 185 185 187 190 192 192 190 186 184 186 190 189 189 194 201 203 201 193 186 188 190 190 196 208 218 233 254 271 279 278 269 257 260 261 245 227 216 216 258 310 321 326 338
84 99 113 117 99 65 225 206 196 190 185 185 186 181 173 172 175 178 178 177 177 176 175 173 171 172 174 176 178 180 180 177 174 173 173 175 179 183 185 185 187 189 190 191 192 193 194 193 189 187 189 194 195 193 191 191 195 198 194 179 169 170 174 182 196 214 228 244 263 277 284 284 276 268 264 248 219 202 197 212 278 315 329 344 350
86 88 87 78 60 46 58 188 186 182 181 185 194 192 184 180 179 177 176 177 178 179 180 179 175 174 174 175 175 177 178 176 174 172 173 176 182 186 189 190 191 192 194 195 196 196 195 193 192 195 199 202 201 199 194 191 192 193 191 184 178 174 172 176 191 210 226 241 257 279 302 310 303 283 252 216 197 193 200 232 283 309 334 347 346
Height
734 737 739 742 745 747 750 754 757 760 763 766 768 769 772 775 777 780 782 784 785 787 789 790 792 794 796 798 799 801 803 805 807 808 809 810 811 812 814 815 816 817 818 820 821 822 823 824 825 827 828 829 830 831 832 833 834 835 836 837 837 838 838 838 839 838 839 839 839 839 840 840 840 840 840 840 841 841 841 841 841 840 840 839 838
729 732 735 739 741 743 747 750 753 756 759 762 763 765 768 770 773 777 779 781 783 784 786 787 789 791 793 795 797 799 801 802 804 806 807 808 809 810 812 813 813 814 816 817 818 820 821 822 823 825 826 827 828 830 830 831 832 833 834 835 835 836 837 837 838 837 837 837 838 838 838 838 838 839 839 839 839 839 839 839 839 838 838 837 836
724 728 732 734 736 740 744 747 749 752 754 757 759 761 763 766 770 772 774 777 779 781 783 785 787 789 791 792 794 796 798 800 801 803 804 805 807 808 809 810 811 812 813 814 816 818 819 820 821 823 825 825 826 828 829 829 830 831 832 833 833 834 835 836 837 837 836 836 836 836 837 837 837 837 837 838 838 838 837 837 837 836 836 835 835
721 725 727 730 734 738 740 743 746 748 750 752 754 756 760 763 765 768 771 773 776 778 780 782 784 786 788 789 791 793 795 797 799 800 801 803 804 805 806 807 808 809 810 811 813 815 817 818 819 821 823 823 824 826 827 828 828 829 830 831 832 833 834 835 835 836 836 835 835 836 836 836 836 836 836 836 836 836 836 835 835 834 833 833 832
717 720 723 727 731 734 737 740 742 743 745 747 750 753 756 759 761 764 767 770 773 775 778 780 781 783 784 786 788 789 791 794 796 797 798 800 802 803 804 805 806 807 808 809 811 812 814 815 817 819 820 821 822 823 824 825 826 827 828 829 830 831 832 833 834 834 835 835 835 835 835 835 835 835 835 835 835 834 834 833 832 832 831 830 830
713 716 720 723 726 729 733 735 737 739 742 744 747 750 753 755 758 760 763 766 769 772 774 776 778 780 781 783 785 787 789 791 792 794 796 797 799 800 801 802 803 804 806 807 808 810 811 813 814 816 818 819 819 821 822 823 824 826 827 828 829 830 830 831 832 833 833 833 833 833 834 834 834 834 834 834 833 832 832 831 830 830 829 827 827
708 712 715 718 721 724 727 730 733 736 739 742 745 747 749 752 754 756 759 763 766 769 771 773 775 776 779 780 782 784 786 788 789 791 792 794 796 798 799 800 801 802 803 805 806 807 809 810 812 813 814 816 817 818 819 821 822 823 825 826 827 828 828 829 830 831 831 831 831 831 831 832 832 832 832 832 832 831 830 829 828 828 828 826 824
704 707 711 713 716 718 721 725 729 733 736 739 742 744 746 749 751 754 757 759 762 765 767 770 772 774 776 778 779 781 783 784 786 787 789 791 793 795 796 797 798 800 801 802 804 805 806 807 809 810 812 813 814 815 817 818 819 821 822 824 825 826 826 827 828 829 829 828 828 828 828 829 829 829 829 830 830 829 829 829 827 826 826 825 823
699 702 706 708 709 712 717 722 725 729 733 735 738 740 743 746 748 751 754 756 758 761 764 767 769 771 773 774 776 778 779 780 781 783 785 788 790 792 793 794 795 797 798 799 801 802 803 804 806 807 809 810 811 813 814 815 817 818 819 821 822 823 824 825 825 826 826 826 826 826 826 826 826 827 827 827 827 827 827 827 826 824 824 823 822
694 697 700 701 704 709 713 717 721 724 728 730 733 737 740 744 746 748 750 752 755 758 761 763 765 767 769 771 772 774 775 776 777 779 782 784 787 788 789 791 792 793 795 796 797 798 800 801 802 804 806 807 809 810 811 813 814 815 817 818 819 820 821 822 822 823 823 823 823 824 823 823 823 824 824 824 825 825 825 825 824 823 823 822 820
689 692 693 695 700 705 709 712 716 719 722 726 730 733 737 741 743 745 747 749 752 754 756 758 760 762 765 767 768 769 770 771 773 776 779 781 783 785 786 787 788 789 791 792 793 794 796 798 799 801 803 805 806 807 808 810 811 813 814 815 816 818 818 819 819 820 820 820 820 821 821 820 820 820 821 822 822 822 822 822 821 821 821 820 819
684 686 688 692 697 700 703 707 711 714 717 721 726 730 734 738 740 743 744 745 747 749 751 753 755 758 761 762 764 765 766 767 770 772 775 777 780 781 781 783 784 785 787 788 790 791 792 794 796 798 800 801 803 805 806 807 808 810 811 812 814 815 816 816 817 818 818 818 818 818 817 817 817 818 819 819 819 819 819 819 819 818 818 818 817
679 681 684 689 692 695 699 703 706 710 713 717 722 727 731 733 735 737 738 740 743 745 746 748 751 754 756 758 759 760 762 764 766 768 771 774 775 776 777 779 780 782 783 784 786 787 789 791 793 795 797 799 801 802 803 804 805 807 808 810 811 812 813 814 815 816 816 816 815 815 814 815 816 817 818 818 817 817 817 816 816 816 816 816 815
674 677 680 684 687 691 695 698 701 705 709 714 719 723 725 727 728 731 734 737 739 739 741 744 746 749 751 753 755 756 758 760 761 764 768 770 771 772 773 775 776 778 779 781 782 784 786 788 791 792 794 796 798 799 800 801 803 805 806 808 809 810 811 812 813 813 814 814 814 814 814 816 817 817 818 819 818 816 814 814 813 813 813 813 812
669 672 676 679 682 686 690 693 696 700 705 711 714 716 718 720 722 726 729 731 733 734 737 739 742 744 747 749 751 752 754 756 758 761 763 765 767 768 769 771 773 775 777 778 780 782 784 786 788 789 790 792 794 796 797 799 801 803 804 806 807 808 809 811 811 810 811 812 813 813 813 814 815 815 817 819 817 814 812 811 811 811 811 811 810
664 668 672 675 678 681 684 688 692 696 702 705 707 709 711 713 717 720 724 726 728 731 733 735 737 740 742 745 747 748 750 752 754 757 759 762 763 763 765 768 772 774 775 777 778 780 782 784 785 786 787 789 791 793 795 796 798 801 802 804 806 807 807 809 809 808 809 811 811 810 811 811 812 812 814 816 814 812 810 810 809 810 809 809 808
661 664 667 670 674 677 680 684 688 692 697 698 699 701 704 708 712 715 719 721 723 726 728 730 733 735 738 740 742 744 746 748 750 753 756 759 759 760 764 769 772 773 774 775 776 777 779 781 783 784 785 786 788 790 792 794 796 798 800 802 805 805 805 806 807 807 808 809 809 809 809 809 809 811 813 813 811 810 808 808 808 808 808 808 807
657 659 661 664 668 672 677 681 685 688 690 691 693 696 699 703 706 710 713 715 717 720 723 726 729 731 733 735 737 740 742 744 747 750 753 755 755 759 765 768 769 771 773 774 774 775 776 778 780 781 783 784 786 788 790 792 794 796 798 800 802 803 804 805 806 807 808 809 808 807 807 807 808 810 810 810 808 807 806 806 807 807 807 807 806
651 653 655 659 663 668 673 677 680 682 684 686 689 692 695 699 702 706 709 710 713 716 719 722 724 726 728 731 733 736 739 741 744 747 750 751 753 757 762 764 765 767 769 771 772 773 774 776 778 780 781 783 784 786 788 790 791 793 796 798 800 801 801 802 803 804 806 806 806 805 804 805 806 807 807 806 805 805 805 805 806 806 806 806 805
647 650 653 658 663 667 670 672 674 676 679 681 685 688 692 696 700 702 704 706 709 713 715 718 720 722 725 727 729 732 735 737 740 743 746 748 751 754 757 759 761 763 765 768 770 771 772 774 776 778 780 781 782 784 785 787 789 791 793 795 797 798 799 800 801 802 803 803 803 802 803 803 804 804 803 803 803 803 804 804 805 805 805 804 803
641 646 651 656 660 663 665 668 670 673 675 678 683 686 689 692 695 697 700 703 706 708 711 713 716 718 721 723 726 728 731 733 736 740 742 745 748 750 752 754 756 759 762 765 767 768 770 772 775 777 778 779 781 782 783 785 787 788 790 792 793 795 796 798 799 800 800 800 800 800 801 801 802 802 802 802 802 802 803 803 804 803 803 802 801
640 644 647 651 654 656 659 662 666 670 674 677 681 683 685 688 690 693 697 700 702 704 706 709 712 715 717 720 722 724 727 730 733 736 739 741 744 747 749 751 753 756 759 762 764 766 768 771 773 775 777 778 779 780 782 783 784 786 787 789 790 792 794 795 796 797 797 798 798 799 799 800 800 800 801 801 801 801 802 802 802 802 801 800 799
639 642 645 648 650 652 654 657 660 664 668 672 676 678 681 685 687 690 693 696 699 701 702 705 708 711 713 716 719 721 724 727 730 733 736 738 741 744 746 749 751 754 757 759 761 764 767 769 772 775 776 777 778 779 780 782 782 784 785 787 788 790 791 792 793 794 795 796 797 797 797 798 798 798 799 799 799 800 800 800 800 799 798 798 797
635 638 640 642 645 647 649 651 654 657 660 665 669 673 677 680 683 685 688 691 695 697 699 701 704 707 710 713 716 718 721 724 727 730 733 736 739 742 744 747 750 753 755 757 760 763 765 768 771 773 775 777 778 778 779 780 781 782 783 785 786 788 789 790 791 793 793 794 794 794 795 795 795 796 796 797 797 798 798 798 797 797 796 796 795
630 632 633 635 636 639 641 644 647 650 654 658 662 665 669 673 677 680 683 686 690 693 696 698 700 703 706 709 713 716 719 722 725 728 731 734 737 740 743 746 749 752 754 757 759 762 765 767 770 772 774 776 777 777 778 778 779 780 781 783 784 785 787 788 790 790 791 791 792 792 793 793 793 794 795 795 795 795 795 795 795 795 794 793 793
626 627 628 629 630 633 636 639 641 644 648 652 656 659 662 666 669 674 678 682 685 688 692 695 697 700 703 707 710 713 716 719 722 725 729 732 735 739 742 745 748 750 753 756 759 762 764 767 769 771 773 774 775 776 776 777 778 778 779 780 782 783 785 787 788 789 789 790 790 790 791 791 792 792 793 793 793 793 793 793 793 792 792 792 791
623 623 623 624 626 629 632 635 638 641 644 647 651 655 658 661 664 667 671 675 679 683 687 691 694 697 701 704 708 711 714 718 721 723 726 730 733 736 739 742 745 748 751 755 758 761 764 766 768 770 771 772 773 774 775 776 776 777 778 779 780 782 784 785 786 787 787 788 788 788 789 790 790 791 791 791 791 791 792 792 791 791 791 790 789
620 620 619 620 622 624 626 628 631 634 638 641 646 650 653 656 658 660 661 663 667 673 679 684 688 692 697 701 705 709 713 715 718 721 724 727 730 733 736 739 742 746 750 754 757 760 762 764 766 768 769 770 771 772 773 774 775 776 777 778 780 781 783 784 785 785 785 786 786 787 787 788 788 789 789 789 789 790 790 790 790 789 789 788 787
622 621 620 620 621 621 622 623 625 627 630 633 637 641 644 645 648 651 656 659 660 662 667 675 681 686 691 696 701 706 710 714 717 720 723 725 727 730 732 735 739 743 748 752 756 758 760 762 764 766 767 768 769 770 771 772 774 775 776 777 779 780 782 782 783 783 784 784 785 785 786 786 786 787 788 788 788 789 789 789 789 788 788 787 786
625 624 623 622 621 621 621 622 622 623 626 627 628 632 635 637 639 642 651 662 668 666 664 668 674 680 686 693 697 702 706 711 716 720 722 725 727 729 731 734 737 742 747 751 754 757 758 760 762 764 765 767 768 769 770 771 772 773 774 776 777 778 779 780 780 781 782 782 782 783 784 784 785 785 786 786 787 787 788 787 787 787 786 785 784
626 626 625 623 621 620 620 620 619 619 620 620 622 625 629 633 637 641 647 658 669 673 671 669 672 677 684 691 696 701 706 710 715 719 722 725 728 730 732 735 737 741 746 749 753 755 757 759 761 762 763 765 766 767 769 769 771 772 773 774 775 776 776 777 778 779 780 780 781 781 782 782 783 783 784 785 785 786 786 786 785 785 784 784 783
628 628 627 625 622 619 617 616 616 616 617 618 619 622 625 629 636 644 650 657 666 674 675 674 674 678 684 690 695 700 706 710 714 719 722 725 727 730 733 735 737 741 745 748 751 753 755 757 758 760 761 763 764 766 767 768 769 770 771 772 772 773 774 775 776 777 778 778 779 779 780 781 781 782 782 783 784 784 784 784 784 783 783 782 782
629 629 630 630 628 624 620 616 612 612 613 616 618 619 621 622 624 634 647 660 668 674 677 678 679 681 685 690 694 699 705 710 713 717 721 724 727 730 733 736 738 740 744 746 749 751 753 755 757 758 760 761 763 764 765 766 767 768 769 769 770 771 772 773 774 775 776 777 778 778 779 780 780 781 781 782 782 782 782 782 782 782 781 781 780
631 631 632 634 633 632 629 624 618 613 613 616 619 621 622 621 617 621 635 652 666 674 678 681 683 684 686 691 696 700 704 709 712 715 718 722 726 730 732 735 737 740 743 745 747 749 751 753 755 757 758 760 762 763 764 765 766 766 767 768 769 770 771 772 773 775 775 776 777 777 778 779 779 779 780 780 780 781 781 781 781 780 780 780 779
633 633 635 636 635 635 635 633 628 623 620 621 624 626 626 626 625 627 634 646 659 670 677 680 682 685 688 693 697 700 705 709 712 714 717 721 724 728 730 733 736 739 741 744 745 747 750 752 753 755 757 759 760 761 762 763 764 765 766 767 768 769 771 772 773 774 775 775 776 776 777 777 778 778 779 779 779 779 779 780 780 779 779 778 777
635 637 638 638 637 637 637 637 635 631 627 626 628 630 630 632 635 641 648 655 661 668 674 678 682 686 690 693 697 701 706 709 711 715 719 721 723 725 728 730 733 736 739 742 744 746 749 750 752 754 756 757 758 759 761 762 763 765 766 767 768 769 770 772 773 773 774 774 775 775 775 776 776 777 777 777 778 778 778 778 778 778 778 777 776
637 637 638 639 640 640 640 641 640 638 634 632 634 636 637 639 643 651 660 666 667 669 673 678 682 686 690 694 698 703 706 709 712 716 720 722 723 725 726 728 730 734 737 740 743 745 747 749 751 752 754 755 757 759 760 762 763 764 765 766 767 768 770 771 772 772 773 773 773 774 774 775 775 776 776 776 777 777 777 777 777 777 776 775 774
641 639 639 641 644 645 645 645 645 644 641 639 641 643 645 649 655 662 668 671 670 671 675 679 681 684 688 693 698 702 706 710 714 718 721 723 724 725 726 727 729 732 735 738 741 744 746 748 750 751 753 755 756 758 760 762 763 764 765 765 767 768 769 770 771 771 771 772 772 772 772 773 773 774 775 775 776 776 776 776 776 775 774 774 773
645 644 644 643 645 648 650 650 649 648 646 646 647 650 654 660 666 669 671 672 673 674 677 680 682 684 687 691 696 701 705 710 714 717 720 723 724 725 726 728 729 732 734 738 741 743 745 747 748 750 752 754 756 758 760 761 762 763 763 764 766 767 768 769 769 770 770 770 770 770 771 771 772 773 773 774 774 774 775 774 774 773 773 772 771
647 647 647 646 647 650 652 652 652 652 652 653 655 658 661 666 670 671 671 672 675 677 678 681 683 686 688 691 696 699 703 708 712 715 718 721 723 725 726 727 729 731 734 737 740 742 744 745 747 749 752 754 756 758 759 760 761 761 762 763 764 766 766 767 768 768 768 768 768 768 769 769 770 771 772 772 773 773 773 773 772 772 771 770 769
649 649 649 648 649 651 652 654 655 656 657 659 661 664 667 669 671 673 673 675 677 679 680 683 685 687 690 694 697 699 702 705 709 713 716 719 722 724 725 727 729 731 734 737 739 741 743 744 746 749 751 754 755 757 759 759 760 760 761 762 763 764 765 765 766 766 766 766 766 767 767 768 769 770 770 771 771 771 771 771 770 770 769 769 768
651 651 651 651 652 652 654 656 658 660 661 663 665 667 669 670 671 673 674 676 678 680 682 685 687 689 693 696 699 701 704 706 709 712 715 718 720 722 724 727 729 731 734 736 738 740 742 744 746 749 751 753 755 756 758 759 759 759 760 761 762 763 763 764 764 765 765 765 765 765 766 767 767 768 769 769 770 769 769 769 769 768 768 767 767
653 654 655 656 655 655 657 659 660 662 664 666 667 668 670 671 672 673 674 676 679 681 684 687 689 691 695 698 700 703 705 707 710 712 714 717 720 722 724 727 729 732 734 736 738 739 741 743 746 748 750 752 754 756 757 757 758 758 759 760 761 762 762 763 763 763 763 763 764 764 765 765 766 767 767 768 768 768 767 767 767 767 766 766 765
655 656 658 659 658 658 659 660 661 663 664 666 668 669 671 672 673 674 675 677 679 682 685 688 690 693 696 699 701 703 705 707 710 712 714 717 719 722 724 727 729 732 734 736 737 739 741 743 746 748 750 752 754 755 756 757 757 758 759 760 760 761 762 762 762 762 762 762 762 762 763 764 765 765 766 766 766 766 765 765 765 765 765 764 764
656 657 658 659 660 661 662 662 663 664 665 666 668 669 671 672 673 675 677 678 680 683 685 688 690 693 696 698 700 703 704 707 709 712 714 717 719 721 724 726 729 731 733 735 736 738 740 743 746 747 749 751 753 754 755 756 757 758 758 759 760 761 761 761 761 761 761 761 761 761 762 762 763 763 764 764 764 764 763 763 764 764 763 763 763
658 658 659 660 662 663 664 665 665 665 666 668 669 670 672 672 673 675 677 679 680 682 685 688 690 693 695 697 700 702 704 706 709 711 714 716 719 721 724 726 729 731 732 734 736 738 741 743 745 746 748 750 752 753 755 756 757 757 758 759 760 760 760 760 760 760 760 760 760 760 760 761 761 761 762 762 762 762 761 762 762 762 762 762 761
660 660 661 662 663 665 666 666 666 667 667 669 670 671 672 674 675 677 680 683 684 685 685 687 689 692 694 697 699 702 704 707 709 711 713 716 718 721 724 726 728 730 731 733 736 738 740 743 744 745 747 749 751 753 754 755 756 757 758 758 759 759 759 759 759 759 759 759 759 759 759 759 759 759 759 759 760 760 760 760 761 761 761 761 760
662 663 663 664 665 666 667 667 667 668 668 669 670 671 673 675 676 679 682 686 687 687 686 686 688 690 693 696 699 702 704 707 709 711 713 715 717 720 722 725 727 729 731 733 736 738 740 742 743 744 746 748 750 752 753 754 755 756 757 757 758 758 757 758 758 758 758 758 757 757 757 757 757 757 757 758 758 758 758 759 759 759 759 759 759
665 665 666 666 666 667 667 667 668 669 669 670 671 672 673 675 676 678 680 683 685 685 685 685 687 690 693 696 699 702 704 706 708 710 712 714 717 719 721 724 726 728 731 733 736 738 739 741 742 743 744 746 748 750 752 753 754 755 755 756 756 756 756 757 757 757 757 757 756 756 755 755 755 755 755 756 756 756 757 757 758 758 758 758 758
667 668 668 669 669 669 669 670 671 671 671 671 672 673 674 675 675 676 678 680 682 683 684 685 687 690 692 695 698 701 703 705 708 710 712 714 717 719 721 723 726 728 731 733 735 736 738 739 740 741 743 745 747 749 750 751 752 753 754 754 755 755 755 755 755 756 756 755 755 754 753 753 753 753 754 754 754 755 755 756 756 757 757 757 757
670 670 671 671 671 672 672 673 674 674 673 673 674 674 675 675 675 677 679 680 681 682 684 686 688 690 693 695 697 700 702 705 708 710 713 715 717 719 721 723 726 728 730 732 734 735 737 738 739 741 742 744 745 747 748 749 751 752 752 753 753 753 754 754 754 755 755 754 754 753 752 751 752 752 752 753 753 754 754 755 755 755 756 756 756